TimeEST,TemperatureF,Dew PointF,Humidity,Sea Level PressureIn,VisibilityMPH,Wind Direction,Wind SpeedMPH,Gust SpeedMPH,PrecipitationIn,Events,Conditions,WindDirDegrees,DateUTC
12:53 AM,10.0,-0.0,64,30.07,9.0,SSW,6.9,-,0.00,Snow,Light Snow,200,2014-01-23 05:53:00
1:53 AM,9.0,1.9,73,30.07,10.0,South,4.6,-,0.00,,Overcast,190,2014-01-23 06:53:00
2:46 AM,10.0,3.9,76,30.02,3.0,South,4.6,-,0.00,Snow,Light Snow,190,2014-01-23 07:46:00
2:53 AM,10.9,3.9,73,30.08,3.0,South,3.5,-,0.00,Snow,Light Snow,190,2014-01-23 07:53:00
3:00 AM,10.0,5.0,80,30.03,2.5,South,3.5,-,0.00,Snow,Light Snow,190,2014-01-23 08:00:00
3:42 AM,10.9,6.1,81,30.02,1.8,SSW,6.9,-,0.00,Snow,Light Snow,200,2014-01-23 08:42:00
3:53 AM,10.9,6.1,81,30.08,1.5,SSW,6.9,-,0.00,Snow,Light Snow,200,2014-01-23 08:53:00
4:17 AM,10.9,7.0,84,30.02,2.5,SSW,8.1,-,0.00,Snow,Light Snow,200,2014-01-23 09:17:00
4:53 AM,12.0,7.0,80,30.09,3.0,SW,9.2,-,0.00,Snow,Light Snow,220,2014-01-23 09:53:00
5:05 AM,12.9,7.0,77,30.03,1.8,SW,9.2,-,0.00,Snow,Light Snow,230,2014-01-23 10:05:00
5:30 AM,12.9,8.1,81,30.03,2.0,SW,8.1,-,0.00,Snow,Light Snow,220,2014-01-23 10:30:00
5:53 AM,12.9,8.1,81,30.09,2.0,SW,8.1,-,0.00,Snow,Light Snow,220,2014-01-23 10:53:00
6:53 AM,14.0,9.0,80,30.12,1.5,SW,8.1,-,0.00,Snow,Light Snow,230,2014-01-23 11:53:00
7:10 AM,12.9,9.0,84,30.07,3.0,West,10.4,20.7,0.00,Snow,Light Snow,280,2014-01-23 12:10:00
7:44 AM,12.9,3.0,65,30.10,4.0,West,17.3,27.6,0.00,Snow,Blowing Snow,270,2014-01-23 12:44:00
7:53 AM,12.0,3.0,67,30.16,4.0,West,19.6,31.1,0.00,Snow,Blowing Snow,270,2014-01-23 12:53:00
8:32 AM,10.9,1.0,64,30.13,6.0,West,16.1,21.9,0.00,Snow,Blowing Snow,280,2014-01-23 13:32:00
8:43 AM,10.9,1.0,64,30.14,6.0,West,13.8,23.0,0.00,Snow,Blowing Snow,270,2014-01-23 13:43:00
8:53 AM,10.9,1.0,64,30.21,6.0,West,10.4,19.6,0.00,Snow,Blowing Snow,270,2014-01-23 13:53:00
9:53 AM,10.9,1.0,64,30.26,4.0,West,17.3,23.0,0.00,Snow,Light Snow,260,2014-01-23 14:53:00
10:53 AM,10.9,1.0,64,30.30,5.0,West,10.4,-,0.00,Snow,Light Snow,270,2014-01-23 15:53:00
11:53 AM,10.9,1.0,64,30.31,3.0,WSW,16.1,21.9,0.00,Snow,Blowing Snow,240,2014-01-23 16:53:00
12:15 PM,12.0,1.0,61,30.25,3.0,West,12.7,19.6,0.00,Snow,Light Snow,260,2014-01-23 17:15:00
12:22 PM,10.9,-0.0,61,30.25,5.0,West,17.3,26.5,0.00,Snow,Blowing Snow,270,2014-01-23 17:22:00
12:33 PM,10.9,1.9,67,30.25,2.5,WSW,13.8,21.9,0.00,Snow,Light Snow,250,2014-01-23 17:33:00
12:36 PM,10.9,1.9,67,30.25,3.0,WSW,16.1,20.7,0.00,Snow,Light Snow,250,2014-01-23 17:36:00
12:44 PM,10.9,1.0,64,30.25,2.5,WSW,16.1,23.0,0.00,Snow,Light Snow,250,2014-01-23 17:44:00
12:53 PM,10.9,1.0,64,30.31,4.0,WSW,16.1,25.3,0.00,Snow,Light Snow,240,2014-01-23 17:53:00
1:02 PM,10.9,-0.0,61,30.26,2.5,WSW,15.0,25.3,0.00,Snow,Light Snow,250,2014-01-23 18:02:00
1:15 PM,10.9,-2.0,56,30.26,7.0,WSW,11.5,-,0.00,Snow,Light Snow,250,2014-01-23 18:15:00
1:22 PM,10.9,1.0,64,30.26,6.0,WSW,16.1,20.7,0.00,Snow,Light Snow,250,2014-01-23 18:22:00
1:48 PM,10.4,-0.4,62,30.26,6.0,West,9.2,20.7,0.00,Snow,Light Snow,270,2014-01-23 18:48:00
1:53 PM,10.9,-0.9,59,30.33,4.0,West,11.5,20.7,0.00,Snow,Light Snow,260,2014-01-23 18:53:00
2:10 PM,12.0,-0.9,56,30.28,9.0,West,15.0,20.7,0.00,,Overcast,270,2014-01-23 19:10:00
2:27 PM,10.9,-0.0,61,30.29,2.5,West,13.8,-,0.00,Snow,Light Snow,280,2014-01-23 19:27:00
2:35 PM,10.9,-0.0,61,30.29,5.0,WSW,12.7,20.7,0.00,Snow,Light Snow,250,2014-01-23 19:35:00
2:53 PM,10.9,-0.9,59,30.35,9.0,West,12.7,23.0,0.00,,Overcast,270,2014-01-23 19:53:00
3:53 PM,10.9,-2.0,56,30.38,10.0,West,15.0,-,0.00,,Overcast,270,2014-01-23 20:53:00
4:53 PM,10.0,-0.0,64,30.41,7.0,West,9.2,-,0.00,,Overcast,260,2014-01-23 21:53:00
5:21 PM,9.0,-2.9,59,30.37,10.0,West,9.2,-,N/A,,Scattered Clouds,280,2014-01-23 22:21:00
5:53 PM,8.1,-2.0,64,30.43,10.0,West,6.9,-,N/A,,Scattered Clouds,280,2014-01-23 22:53:00
6:53 PM,8.1,-2.9,61,30.46,10.0,West,8.1,-,N/A,,Clear,260,2014-01-23 23:53:00
7:53 PM,7.0,-2.9,64,30.49,10.0,West,6.9,-,N/A,,Overcast,260,2014-01-24 00:53:00
8:08 PM,7.0,-2.9,64,30.43,10.0,West,8.1,-,N/A,,Overcast,260,2014-01-24 01:08:00
8:39 PM,7.0,-2.9,64,30.44,10.0,West,11.5,-,N/A,,Overcast,270,2014-01-24 01:39:00
8:53 PM,7.0,-2.9,64,30.50,10.0,West,11.5,-,N/A,,Overcast,260,2014-01-24 01:53:00
9:53 PM,6.1,-4.0,63,30.52,10.0,West,8.1,-,N/A,,Overcast,270,2014-01-24 02:53:00
10:53 PM,5.0,-5.1,63,30.53,10.0,West,10.4,-,N/A,,Overcast,270,2014-01-24 03:53:00
11:53 PM,3.9,-4.0,70,30.54,8.0,West,8.1,-,0.00,,Overcast,260,2014-01-24 04:53:00